Location: Bas Lanzent
(48.1360°N, 3.5871°W)
Time: 07:17:16
(UTC+00:00)

Cosmos 2219 Rocket - Pass Details

Date: 18 February 2020
Orbit: 828 x 846 km, 71.0° (Epoch: 30 March)

Event Time Altitude Azimuth Distance (km) Brightness Sun altitude
Exits shadow 03:59:04 22° 359° (N) 1,775 4.0 -33.3°
Drops below altitude 10° 04:01:21 10° 15° (NNE) 2,479 5.0 -32.9°
Sets 04:04:02 0° 25° (NNE) 3,416 5.9 -32.5°
